When you browse on this site, cookies collect data to enhance your experience and personalize the content and advertising you see.
Visit our Privacy Policy to learn more. By continuing to use the site, you agree to this use of cookies and data.
  • In Deutschland
  • Länderverzeichnis
  • Für 7 Tage
  • Wassertemperatur
  • Satellitenkarten
  • Wetterkarte
  • Widgets
  • user-avatar
    Anmelden

    Stündliche Wetter Enkamp

    Heute, 25 April, Donnerstag

    Zeit Temperatur Niederschläge Wind Luftdruck Luftfeuchtigkeit
    00:00 +1°C° 0 mm 5 m/S 615 mmHg 90%
    01:00 +1°C° 1.3 mm 5 m/S 615 mmHg 91%
    02:00 +1°C° 1.3 mm 5 m/S 615 mmHg 92%
    03:00 +1°C° 1.3 mm 5 m/S 615 mmHg 92%
    04:00 +2°C° 1.7 mm 5 m/S 615 mmHg 93%
    05:00 +3°C° 1.7 mm 4 m/S 615 mmHg 93%
    06:00 +3°C° 1.7 mm 4 m/S 615 mmHg 94%
    07:00 +3°C° 2.7 mm 4 m/S 615 mmHg 94%
    08:00 +3°C° 2.7 mm 3 m/S 616 mmHg 95%
    09:00 +3°C° 2.7 mm 3 m/S 616 mmHg 95%
    10:00 +3°C° 0.4 mm 4 m/S 616 mmHg 91%
    11:00 +3°C° 0.4 mm 5 m/S 616 mmHg 86%
    12:00 +3°C° 0.4 mm 5 m/S 617 mmHg 82%
    13:00 +4°C° 0.2 mm 6 m/S 617 mmHg 78%
    14:00 +4°C° 0.2 mm 6 m/S 617 mmHg 73%
    15:00 +4°C° 0.2 mm 6 m/S 617 mmHg 69%
    16:00 +3°C° 0.3 mm 5 m/S 617 mmHg 74%
    17:00 +3°C° 0.3 mm 4 m/S 617 mmHg 78%
    18:00 +3°C° 0.3 mm 2 m/S 617 mmHg 82%
    19:00 +1°C° 0.1 mm 2 m/S 617 mmHg 85%
    20:00 -1°C° 0.1 mm 2 m/S 617 mmHg 88%
    21:00 -3°C° 0.1 mm 2 m/S 617 mmHg 90%
    22:00 -3°C° 0 mm 2 m/S 617 mmHg 88%
    23:00 -4°C° 0 mm 2 m/S 617 mmHg 85%

    Morgen, 26 April, Freitag

    Zeit Temperatur Niederschläge Wind Luftdruck Luftfeuchtigkeit
    00:00 -4°C° 0 mm 2 m/S 618 mmHg 83%
    01:00 -4°C° 0 mm 2 m/S 618 mmHg 83%
    02:00 -4°C° 0 mm 2 m/S 618 mmHg 83%
    03:00 -2°C° 0 mm 1 m/S 619 mmHg 83%
    04:00 -1°C° 0 mm 1 m/S 619 mmHg 81%
    05:00 0°C° 0 mm 1 m/S 620 mmHg 80%
    06:00 0°C° 0 mm 1 m/S 621 mmHg 78%
    07:00 +2°C° 0 mm 1 m/S 622 mmHg 71%
    08:00 +3°C° 0 mm 2 m/S 623 mmHg 63%
    09:00 +5°C° 0 mm 2 m/S 624 mmHg 56%
    10:00 +6°C° 0.1 mm 2 m/S 625 mmHg 59%
    11:00 +6°C° 0.1 mm 2 m/S 625 mmHg 62%
    12:00 +6°C° 0.1 mm 2 m/S 625 mmHg 64%
    13:00 +6°C° 0.3 mm 2 m/S 625 mmHg 68%
    14:00 +6°C° 0.3 mm 2 m/S 625 mmHg 73%
    15:00 +5°C° 0.3 mm 2 m/S 625 mmHg 77%
    16:00 +5°C° 0.1 mm 2 m/S 625 mmHg 80%
    17:00 +4°C° 0.1 mm 2 m/S 625 mmHg 84%
    18:00 +4°C° 0.1 mm 2 m/S 625 mmHg 87%
    19:00 +2°C° 0 mm 2 m/S 625 mmHg 90%
    20:00 +1°C° 0 mm 2 m/S 626 mmHg 92%
    21:00 -1°C° 0 mm 2 m/S 626 mmHg 95%
    22:00 -1°C° 0 mm 2 m/S 625 mmHg 94%
    23:00 -2°C° 0 mm 2 m/S 625 mmHg 93%

    übermorgen, 27 April, Samstag

    Zeit Temperatur Niederschläge Wind Luftdruck Luftfeuchtigkeit
    00:00 -3°C° 0 mm 2 m/S 625 mmHg 92%
    01:00 -3°C° 0 mm 2 m/S 625 mmHg 87%
    02:00 -3°C° 0 mm 2 m/S 625 mmHg 81%
    03:00 -3°C° 0 mm 2 m/S 625 mmHg 76%
    04:00 -3°C° 0 mm 2 m/S 625 mmHg 73%
    05:00 -2°C° 0 mm 2 m/S 625 mmHg 70%
    06:00 -1°C° 0 mm 2 m/S 626 mmHg 67%
    07:00 +2°C° 0 mm 2 m/S 627 mmHg 68%
    08:00 +5°C° 0 mm 2 m/S 628 mmHg 69%
    09:00 +7°C° 0 mm 2 m/S 629 mmHg 69%
    10:00 +8°C° 0 mm 2 m/S 629 mmHg 68%
    11:00 +8°C° 0 mm 2 m/S 629 mmHg 67%
    12:00 +9°C° 0 mm 2 m/S 629 mmHg 67%
    13:00 +9°C° 0 mm 2 m/S 629 mmHg 67%
    14:00 +9°C° 0 mm 2 m/S 629 mmHg 67%
    15:00 +9°C° 0 mm 2 m/S 628 mmHg 67%
    16:00 +8°C° 0 mm 2 m/S 628 mmHg 73%
    17:00 +7°C° 0 mm 2 m/S 628 mmHg 79%
    18:00 +6°C° 0 mm 2 m/S 627 mmHg 84%
    19:00 +5°C° 0 mm 2 m/S 627 mmHg 88%
    20:00 +3°C° 0 mm 2 m/S 627 mmHg 91%
    21:00 +2°C° 0 mm 2 m/S 627 mmHg 94%
    22:00 +1°C° 0 mm 2 m/S 627 mmHg 94%
    23:00 -1°C° 0 mm 2 m/S 626 mmHg 93%

    28 April, Sonntag

    Zeit Temperatur Niederschläge Wind Luftdruck Luftfeuchtigkeit
    00:00 -2°C° 0 mm 2 m/S 626 mmHg 92%
    01:00 -2°C° 0 mm 2 m/S 625 mmHg 91%
    02:00 -2°C° 0 mm 2 m/S 625 mmHg 90%
    03:00 -3°C° 0 mm 2 m/S 625 mmHg 89%
    04:00 -2°C° 0 mm 2 m/S 625 mmHg 85%
    05:00 -2°C° 0 mm 2 m/S 625 mmHg 82%
    06:00 -2°C° 0 mm 2 m/S 625 mmHg 79%
    07:00 +2°C° 0 mm 2 m/S 626 mmHg 72%
    08:00 +4°C° 0 mm 2 m/S 627 mmHg 64%
    09:00 +7°C° 0 mm 2 m/S 628 mmHg 57%
    10:00 +8°C° 0 mm 2 m/S 628 mmHg 54%
    11:00 +9°C° 0 mm 2 m/S 628 mmHg 51%
    12:00 +10°C° 0 mm 2 m/S 628 mmHg 49%
    13:00 +10°C° 0 mm 3 m/S 628 mmHg 50%
    14:00 +10°C° 0 mm 3 m/S 627 mmHg 52%
    15:00 +10°C° 0 mm 3 m/S 627 mmHg 54%
    16:00 +8°C° 0 mm 2 m/S 626 mmHg 61%
    17:00 +7°C° 0 mm 2 m/S 625 mmHg 69%
    18:00 +5°C° 0 mm 2 m/S 625 mmHg 77%
    19:00 +4°C° 0 mm 2 m/S 624 mmHg 82%
    20:00 +2°C° 0 mm 2 m/S 624 mmHg 87%
    21:00 -1°C° 0 mm 2 m/S 624 mmHg 93%
    22:00 -1°C° 0 mm 2 m/S 624 mmHg 90%
    23:00 -1°C° 0 mm 2 m/S 623 mmHg 87%

    29 April, Montag

    Zeit Temperatur Niederschläge Wind Luftdruck Luftfeuchtigkeit
    00:00 -2°C° 0 mm 2 m/S 623 mmHg 85%
    01:00 -2°C° 0 mm 2 m/S 623 mmHg 84%
    02:00 -2°C° 0 mm 2 m/S 623 mmHg 82%
    03:00 0°C° 0 mm 1 m/S 622 mmHg 81%
    04:00 +1°C° 0 mm 1 m/S 623 mmHg 78%
    05:00 +2°C° 0 mm 1 m/S 623 mmHg 75%
    06:00 +2°C° 0 mm 1 m/S 623 mmHg 72%
    07:00 +5°C° 0 mm 1 m/S 624 mmHg 64%
    08:00 +7°C° 0 mm 1 m/S 625 mmHg 56%
    09:00 +10°C° 0 mm 1 m/S 626 mmHg 47%
    10:00 +10°C° 0 mm 2 m/S 626 mmHg 46%
    11:00 +12°C° 0 mm 2 m/S 626 mmHg 44%
    12:00 +13°C° 0 mm 2 m/S 626 mmHg 43%
    13:00 +13°C° 0 mm 2 m/S 625 mmHg 46%
    14:00 +13°C° 0 mm 2 m/S 625 mmHg 49%
    15:00 +12°C° 0 mm 2 m/S 624 mmHg 53%
    16:00 +11°C° 0 mm 1 m/S 624 mmHg 61%
    17:00 +9°C° 0 mm 1 m/S 623 mmHg 69%
    18:00 +8°C° 0 mm 1 m/S 623 mmHg 77%
    19:00 +7°C° 0 mm 1 m/S 623 mmHg 82%
    20:00 +4°C° 0 mm 0 m/S 623 mmHg 88%
    21:00 +3°C° 0 mm 0 m/S 622 mmHg 93%
    22:00 +4°C° 0 mm 0 m/S 623 mmHg 94%
    23:00 +5°C° 0 mm 1 m/S 623 mmHg 95%

    30 April, Dienstag

    Zeit Temperatur Niederschläge Wind Luftdruck Luftfeuchtigkeit
    00:00 +5°C° 0 mm 1 m/S 623 mmHg 95%
    01:00 +5°C° 0.1 mm 1 m/S 623 mmHg 96%
    02:00 +5°C° 0.1 mm 1 m/S 622 mmHg 96%
    03:00 +5°C° 0.1 mm 1 m/S 622 mmHg 97%
    04:00 +6°C° 0 mm 1 m/S 622 mmHg 95%
    05:00 +6°C° 0 mm 1 m/S 622 mmHg 94%
    06:00 +6°C° 0 mm 1 m/S 622 mmHg 93%
    07:00 +8°C° 0 mm 1 m/S 623 mmHg 82%
    08:00 +9°C° 0 mm 1 m/S 623 mmHg 71%
    09:00 +11°C° 0 mm 1 m/S 624 mmHg 60%
    10:00 +12°C° 0 mm 2 m/S 624 mmHg 55%
    11:00 +13°C° 0 mm 2 m/S 624 mmHg 49%
    12:00 +14°C° 0 mm 2 m/S 624 mmHg 44%
    13:00 +14°C° 0 mm 2 m/S 624 mmHg 45%
    14:00 +14°C° 0 mm 2 m/S 624 mmHg 47%
    15:00 +14°C° 0 mm 2 m/S 623 mmHg 48%
    16:00 +12°C° 0.1 mm 1 m/S 623 mmHg 54%
    17:00 +11°C° 0.1 mm 1 m/S 622 mmHg 61%
    18:00 +10°C° 0.1 mm 1 m/S 622 mmHg 67%
    19:00 +8°C° 0 mm 1 m/S 621 mmHg 73%
    20:00 +7°C° 0 mm 1 m/S 621 mmHg 79%
    21:00 +6°C° 0 mm 1 m/S 621 mmHg 85%
    22:00 +5°C° 0 mm 1 m/S 621 mmHg 85%
    23:00 +5°C° 0 mm 1 m/S 621 mmHg 85%
    Mehr zeigen